New York JFK, NY

6:39 AM EDT on September 20, 2019 (GMT -0400)
Kennedy International

Weather History for KJFK - August, 2019

Change the Weather History Date:

Thursday, August 22, 2019

  Actual Average Record
Temperature  
Mean Temperature 79 °F 74 °F  
Max Temperature 89 °F 81 °F 93 °F (1976)
Min Temperature 69 °F 67 °F 56 °F (1982)
Degree Days  
Heating Degree Days 0 0  
Month to date heating degree days 0 0  
Since 1 June heating degree days 7 21  
Since 1 July heating degree days 0 0  
Cooling Degree Days 14 9  
Month to date cooling degree days 269 230  
Year to date cooling degree days 924 785  
Since 1 June cooling degree days 887 750  
Growing Degree Days 29 (Base 50)    
Moisture  
Dew Point 72 °F    
Average Humidity 84    
Maximum Humidity 100    
Minimum Humidity 52    
Precipitation  
Precipitation 0.79 in 0.12 in 2.00 in (1994)
Month to date precipitation 2.69 2.72  
Year to date precipitation 36.18 28.00  
Snow  
Snow 0.00 in 0.00 in - ()
Month to date snowfall 0.0 0.0  
Since 1 July snowfall 0.0 0.0  
Snow Depth 0.00 in    
Sea Level Pressure  
Sea Level Pressure 29.88 in    
Wind  
Wind Speed 8 mph ()    
Max Wind Speed 17 mph    
Max Gust Speed 45 mph    
Visibility 9.5 miles    
Events Rain , Thunderstorm    
T = Trace of Precipitation, MM = Missing Value Source: Averaged Metar Reports

Daily Weather History Graph

Daily Weather History Graph

Search for Another Location

Airport or City:

Astronomy

Aug. 22, 2019 Rise Set
Actual Time 6:12 AM EDT 7:43 PM EDT
Civil Twilight 5:43 AM EDT 8:11 PM EDT
Nautical Twilight 5:08 AM EDT 8:46 PM EDT
Astronomical Twilight 4:31 AM EDT 9:23 PM EDT
Moon 11:29 PM EDT (8/22) 12:46 PM EDT (8/22)
Length of Visible Light 14h 28m
Length of Day
13h 30m
Waning Gibbous, 60% of the Moon is Illuminated
Aug 22
Waning Gibbous
Aug 23
Last Quarter
Aug 30
New
Sep 5
First Quarter
Sep 14
Full

Hourly Weather History & Observations

Time (EDT) Temp. Heat Index Dew Point Humidity Pressure Visibility Wind Dir Wind Speed Gust Speed Precip Events Conditions
12:51 AM 79.0 °F - 73.0 °F 82% 29.86 in 10.0 mi West 8.1 mph - N/A   Mostly Cloudy
1:51 AM 75.9 °F - 73.9 °F 94% 29.86 in 10.0 mi SSW 8.1 mph - N/A   Mostly Cloudy
2:51 AM 75.9 °F - 73.9 °F 94% 29.85 in 10.0 mi WSW 6.9 mph - N/A   Mostly Cloudy
3:51 AM 75.9 °F - 73.0 °F 91% 29.84 in 10.0 mi SW 9.2 mph - N/A   Scattered Clouds
4:51 AM 75.0 °F - 73.0 °F 94% 29.83 in 10.0 mi SW 9.2 mph - N/A   Mostly Cloudy
5:51 AM 75.0 °F - 73.0 °F 94% 29.84 in 10.0 mi WSW 8.1 mph - N/A   Mostly Cloudy
6:51 AM 75.0 °F - 73.0 °F 94% 29.86 in 10.0 mi WSW 12.7 mph - N/A   Mostly Cloudy
7:51 AM 75.9 °F - 73.0 °F 91% 29.88 in 10.0 mi West 12.7 mph - N/A   Mostly Cloudy
8:51 AM 79.0 °F - 73.0 °F 82% 29.88 in 10.0 mi West 9.2 mph - N/A   Mostly Cloudy
9:51 AM 82.0 °F 86.7 °F 72.0 °F 71% 29.89 in 10.0 mi West 12.7 mph - N/A   Mostly Cloudy
10:51 AM 82.9 °F 87.5 °F 71.1 °F 67% 29.88 in 10.0 mi WSW 10.4 mph - N/A   Mostly Cloudy
11:51 AM 84.9 °F 89.4 °F 70.0 °F 61% 29.89 in 10.0 mi WSW 13.8 mph - N/A   Mostly Cloudy
12:51 PM 86.0 °F 91.5 °F 71.1 °F 61% 29.88 in 10.0 mi WSW 12.7 mph - N/A   Scattered Clouds
1:51 PM 86.0 °F 91.5 °F 71.1 °F 61% 29.88 in 10.0 mi WSW 13.8 mph - N/A   Scattered Clouds
2:51 PM 89.1 °F 94.1 °F 70.0 °F 53% 29.87 in 10.0 mi SW 12.7 mph - N/A   Scattered Clouds
3:51 PM 84.9 °F 90.7 °F 72.0 °F 65% 29.85 in 10.0 mi SSW 15.0 mph - N/A   Scattered Clouds
5:51 PM 82.9 °F 90.2 °F 75.0 °F 77% 29.84 in 10.0 mi South 13.8 mph - N/A   Mostly Cloudy
6:51 PM 80.1 °F 85.1 °F 75.0 °F 85% 29.87 in 10.0 mi South 12.7 mph - N/A   Mostly Cloudy
7:51 PM 81.0 °F 86.2 °F 73.9 °F 79% 29.85 in 10.0 mi SE 3.5 mph - N/A   Mostly Cloudy
8:51 PM 79.0 °F - 75.9 °F 90% 29.88 in 10.0 mi SSE 6.9 mph - 0.00 in Thunderstorm Overcast
9:08 PM 71.1 °F - 70.0 °F 96% 29.93 in 2.0 mi NW 16.1 mph 43.7 mph 0.11 in Rain , Thunderstorm Heavy Thunderstorms and Rain
9:19 PM 69.1 °F - 69.1 °F 100% 29.92 in 6.0 mi NNE 5.8 mph - 0.65 in Rain , Thunderstorm Heavy Thunderstorms and Rain
9:43 PM 72.0 °F - 70.0 °F 93% 29.91 in 10.0 mi North 11.5 mph - 0.65 in Thunderstorm Thunderstorm
9:51 PM 72.0 °F - 71.1 °F 97% 29.91 in 10.0 mi Variable 3.5 mph - 0.65 in Thunderstorm Thunderstorm
9:55 PM 72.0 °F - 71.1 °F 97% 29.91 in 10.0 mi NE 3.5 mph - N/A   Overcast
10:51 PM 73.0 °F - 72.0 °F 96% 29.94 in 10.0 mi North 4.6 mph - 0.03 in Rain Light Rain
11:51 PM 73.0 °F - 73.0 °F 100% 29.93 in 8.0 mi Calm Calm - 0.00 in Rain Light Rain